This is the latest recevied weather packets stored in our database for station/object W0VI. If no packets are shown the sender has not sent any weather packets the latest 10 day(s).
| Time | Temp. | Humidity | Pressure | Rain* | Wind** | Luminosity | Snow |
|---|---|---|---|---|---|---|---|
| 1787448385 | 19.44° C | 64% | 1019.8 hPa | 0 mm | - | 0 W/m² | - |
| 1787448080 | 19.44° C | 63% | 1019.4 hPa | 0 mm | - | 0 W/m² | - |
| 1787447779 | 20° C | 62% | 1019.6 hPa | 0 mm | - | 0 W/m² | - |
| 1787447474 | 20° C | 61% | 1019.3 hPa | 0 mm | - | 1 W/m² | - |
| 1787447170 | 20.56° C | 60% | 1019.3 hPa | 0 mm | - | 3 W/m² | - |
| 1787446867 | 20.56° C | 59% | 1019 hPa | 0 mm | - | 6 W/m² | - |
| 1787446566 | 20.56° C | 58% | 1019.3 hPa | 0 mm | - | 8 W/m² | - |
| 1787446262 | 21.11° C | 57% | 1019.4 hPa | 0 mm | - | 12 W/m² | - |
| 1787445958 | 21.67° C | 56% | 1019.1 hPa | 0 mm | - | 16 W/m² | - |
| 1787445654 | 21.67° C | 54% | 1019.2 hPa | 0 mm | - | 19 W/m² | - |
| 1787445350 | 21.67° C | 54% | 1019.1 hPa | 0 mm | - | 23 W/m² | - |
| 1787445044 | 22.22° C | 54% | 1019.1 hPa | 0 mm | - | 27 W/m² | - |
| 1787444735 | 22.22° C | 53% | 1019.2 hPa | 0 mm | - | 32 W/m² | - |
| 1787444432 | 22.78° C | 53% | 1019.3 hPa | 0 mm | - | 37 W/m² | - |
| 1787444126 | 22.78° C | 53% | 1019.4 hPa | 0 mm | - | 42 W/m² | - |
| 1787443825 | 22.78° C | 52% | 1019.3 hPa | 0 mm | - | 46 W/m² | - |
| 1787443519 | 22.78° C | 52% | 1019.3 hPa | 0 mm | - | 52 W/m² | - |
| 1787443215 | 22.78° C | 51% | 1019.1 hPa | 0 mm | - | 58 W/m² | - |
| 1787442909 | 23.33° C | 51% | 1019.3 hPa | 0 mm | - | 64 W/m² | - |
| 1787442605 | 23.33° C | 50% | 1019.2 hPa | 0 mm | - | 80 W/m² | - |
| 1787442301 | 23.33° C | 51% | 1019.2 hPa | 0 mm | - | 88 W/m² | - |
| 1787441995 | 23.33° C | 50% | 1019.5 hPa | 0 mm | - | 95 W/m² | - |
| 1787441690 | 23.89° C | 50% | 1019.3 hPa | 0 mm | - | 103 W/m² | - |
| 1787441380 | 23.89° C | 50% | 1019.5 hPa | 0 mm | - | 117 W/m² | - |
| 1787441076 | 23.89° C | 50% | 1019.2 hPa | 0 mm | - | 124 W/m² | - |
* Rain latest hour (hover to see other rain measurements)
** Current wind speed in m/s (hover to see current wind gust speed)